sat.trackr.live / text

‹ back to catalog

STARLINK-36585

NORAD 67540 · 2026-014J

PAYLOAD ACTIVE UNKNOWN

§ Identity

Operator
Country
US
Launch date
2026-01-22
Launch site
AFWTR
Launch vehicle
Mass (kg)
RCS (m²)

Purposes: comms

External: N2YO · Heavens-Above · Gunter

§ Orbital elements

Epoch: 2026-09-19T22:42:27.179424Z

Period
93.91 min
Inclination
97.2833°
Eccentricity
0.0001861
Mean motion
15.33449584 rev/d
Perigee alt
464.3 km
Apogee alt
466.8 km
Semi-major
6,843.7 km
B*
3.9683e-4
RAAN
148.3210°
Arg perigee
95.2144°
Mean anomaly
264.9312°
Rev number
3,855

§ Raw data

STARLINK-365851 67540U 26014J   26262.94614791  .00012760  00000+0  39683-3 0  99912 67540  97.2833 148.3210 0001861  95.2144 264.9312 15.33449584 38550

JSON: /api/v1/satellites/67540 · /tle

For live sub-satellite position, see the globe view (requires WebGL).

§ Visibility from observer

Set your observer location to see the next 7 days of passes ≥ 10°. The values pass through the URL so the page stays shareable.

No JS? Fill the form by hand. The geolocation button needs JavaScript.